CAPE
0 0 0 0 0 0 0 0 0 0 0 0 0 0 0 0 0 11 2 5 6 18 0 0 0 0 0 0 0 0 6 93 146 825 1860 1998 2089 2077 2043 1965 1841 1452 1189 710
0 0 0 0 0 0 0 0 0 0 0 0 0 0 0 0 0 3 20 0 4 16 12 2 0 0 1 24 1 0 7 272 304 905 1779 2065 2099 2103 2023 1884 1542 1418 1111 663
0 0 0 0 0 0 0 0 0 0 0 0 0 0 0 0 0 1 0 1 1 17 19 7 5 14 20 40 59 2 1 216 430 927 1528 1732 2117 2110 1908 1710 1489 1265 789 618
0 0 0 0 0 0 0 0 0 0 0 0 0 0 0 0 0 5 0 6 4 7 17 20 21 22 25 65 74 66 35 91 535 1281 1445 1355 1528 1890 1854 1832 1545 1233 866 557
0 0 0 0 0 0 0 0 0 0 0 0 0 0 0 0 0 8 5 14 11 15 15 25 17 32 39 59 54 77 81 249 914 1512 1425 1308 1332 1481 1663 1727 1471 1163 873 575
0 0 0 0 0 0 0 0 0 0 0 0 0 0 0 0 0 0 0 0 1 9 32 32 24 43 46 49 45 108 258 440 1136 1563 1684 1554 1455 1575 1779 1735 1367 1011 752 450
0 0 0 0 0 0 0 0 0 0 0 0 0 0 0 0 0 0 0 0 0 0 0 1 7 52 49 29 94 426 627 721 1059 1448 1686 1933 1815 1905 1876 1862 1442 1018 715 261
0 0 0 0 0 0 0 0 0 0 0 0 0 0 0 0 0 0 0 0 0 0 0 0 0 4 91 45 208 547 864 802 937 1192 1497 1717 1871 2020 2200 2171 1621 1077 668 225
0 0 0 0 0 0 0 0 0 0 0 0 0 0 0 0 0 0 0 0 0 0 17 1 0 0 0 77 435 693 952 960 1093 1127 1235 1095 1438 1761 2018 2192 1792 1095 1095 666
0 0 0 0 0 0 0 0 0 0 0 0 0 0 0 0 0 0 0 0 0 0 390 0 0 0 23 300 551 819 953 983 988 857 673 730 910 1391 1808 2152 1990 1185 1121 1022
0 0 0 0 0 0 0 0 0 0 0 0 0 0 0 0 0 0 0 0 0 0 185 494 151 54 120 292 692 1000 998 865 780 658 771 595 653 807 1459 2184 2277 1858 1491 1272
0 0 0 0 0 0 0 0 0 0 0 0 0 0 0 0 0 0 0 0 0 0 5 707 560 490 374 588 906 944 910 851 831 863 1011 835 657 869 1708 2467 2321 2011 1967 1615
0 0 0 0 0 0 0 0 0 0 0 0 0 0 0 0 0 0 0 0 0 0 0 172 942 796 672 755 985 1026 861 927 943 854 1144 812 1136 1773 2458 2494 2169 2209 2106 1671
0 0 0 0 0 0 0 0 0 0 0 0 0 0 0 0 0 0 0 0 0 1 0 0 701 1049 869 813 870 951 973 988 1143 1098 1099 996 829 1419 2160 1937 2202 2267 1916 1430
0 0 0 0 0 0 0 0 0 0 0 0 0 0 0 0 0 0 0 0 0 0 26 40 61 423 1145 990 901 890 804 912 1097 1281 1263 1206 579 503 889 1739 2182 1882 1619 1073
0 0 0 0 0 0 0 0 0 0 0 0 0 0 0 0 0 0 0 0 0 0 0 165 102 70 731 1081 1137 1097 1081 1155 1390 1470 1481 1285 577 564 1514 2055 2163 1741 1306 831
0 0 0 0 0 0 0 0 0 0 0 0 0 0 0 0 0 0 0 0 0 0 0 58 257 174 181 793 1037 1120 1286 1436 1567 1674 1556 1304 884 1207 2180 2438 1987 1321 715 403
0 0 0 0 0 0 0 0 0 0 0 0 0 0 0 0 0 0 0 0 0 0 0 13 319 296 315 239 1281 1895 817 1124 1373 1405 1549 1163 1065 1454 2598 2184 1252 639 422 320
0 0 0 0 0 0 0 0 0 0 0 0 0 0 0 0 0 0 0 0 0 0 0 0 85 404 388 399 340 1864 2523 1662 1352 1380 1393 1205 1044 1853 2155 1183 710 743 903 851
0 0 0 0 0 0 0 0 0 0 0 0 0 0 0 0 0 0 0 0 0 0 0 0 0 87 339 489 477 560 1837 2825 2297 1688 1243 1393 1476 2233 1543 1014 790 602 1225 1006
0 0 0 0 0 0 0 0 0 8 0 0 0 0 0 0 0 0 0 0 0 0 0 0 0 0 43 341 480 443 469 1743 2330 2310 1986 1515 2128 1873 1359 1148 597 741 1090 1029
0 0 0 0 0 0 0 0 0 0 0 0 0 0 0 0 0 0 0 0 2 0 0 0 0 0 0 16 199 363 365 299 641 1118 1556 1476 1294 1861 1506 899 815 877 1047 980
0 0 0 0 0 0 0 0 0 0 25 0 0 0 0 0 0 0 0 0 0 0 0 0 0 0 0 0 10 59 93 78 64 63 96 190 105 1462 1318 1029 822 970 984 858
0 0 0 0 0 0 0 0 0 0 0 0 0 0 0 0 0 0 0 0 6 0 0 0 0 0 0 0 0 0 3 0 0 0 4 61 1135 1060 838 826 672 625 518 321
0 0 0 0 0 0 0 0 0 0 0 0 0 0 0 0 0 0 7 15 10 1 0 0 8 15 2 7 0 0 0 0 1 0 0 20 584 588 704 580 527 574 372 25
0 0 0 0 0 0 0 0 0 0 0 0 0 0 0 0 0 0 1 17 19 13 1 0 8 39 46 10 0 0 0 0 0 0 41 126 249 443 379 310 405 225 41 15
CIN
0 0 0 0 0 0 0 0 0 0 0 0 0 0 0 0 0 -11 -15 -9 -24 -35 0 0 0 0 0 0 0 0 -161 -523 -239 -348 -92 -83 -73 -88 -78 -57 -43 -61 -57 -52
0 0 0 0 0 0 0 0 0 0 0 0 0 0 0 0 0 -14 -8 -7 -15 -20 -33 -21 0 0 -9 -30 -7 0 -154 -406 -239 -308 -110 -86 -81 -71 -59 -56 -66 -62 -56 -61
0 0 0 0 0 0 0 0 0 0 0 0 0 0 0 0 0 -3 0 -4 -11 -28 -29 -25 -14 -13 -14 -32 -29 -9 -84 -403 -403 -262 -200 -115 -64 -54 -53 -74 -88 -83 -59 -59
0 0 0 0 0 0 0 0 0 0 0 0 0 0 0 0 0 -22 0 -14 -1 -15 -20 -42 -31 -26 -25 -37 -35 -32 -626 -593 -452 -354 -263 -254 -145 -118 -127 -103 -92 -83 -77 -64
0 0 0 0 0 0 0 0 0 0 0 0 0 0 0 0 0 -8 -27 -47 -29 -22 -13 -42 -31 -24 -26 -18 -35 -21 -239 -689 -529 -420 -374 -276 -296 -141 -111 -84 -88 -49 -83 -66
0 0 0 0 0 0 0 0 0 0 0 0 0 0 0 0 0 0 0 0 -21 -53 -53 -52 -63 -34 -45 -25 -35 -879 -829 -696 -538 -462 -384 -349 -302 -224 -146 -50 -70 -82 -60 -63
0 0 0 0 0 0 0 0 0 0 0 0 0 0 0 0 0 0 0 0 0 0 0 -18 -93 -39 -43 -40 -882 -845 -778 -722 -595 -484 -383 -345 -274 -197 -153 -54 -46 -30 -54 -84
0 0 0 0 0 0 0 0 0 0 0 0 0 0 0 0 0 0 0 0 0 0 0 0 0 -113 -41 -43 -934 -809 -725 -695 -580 -524 -404 -365 -283 -217 -135 -65 -14 -29 -58 -78
0 0 0 0 0 0 0 0 0 0 0 0 0 0 0 0 0 0 0 0 0 0 -88 -48 0 0 0 -932 -885 -777 -672 -618 -512 -450 -331 -528 -391 -258 -160 -84 -32 -62 -62 -44
0 0 0 0 0 0 0 0 0 0 0 0 0 0 0 0 0 0 0 0 0 0 -443 0 0 0 -879 -824 -735 -657 -618 -567 -452 -355 -249 -651 -500 -310 -175 -54 -32 -79 -70 -20
0 0 0 0 0 0 0 0 0 0 0 0 0 0 0 0 0 0 0 0 0 0 -288 -585 -796 -804 -720 -661 -634 -580 -533 -480 -389 -281 -689 -683 -563 -429 -243 -74 -15 -26 -34 -22
0 0 0 0 0 0 0 0 0 0 0 0 0 0 0 0 0 0 0 0 0 0 -43 -365 -619 -652 -649 -617 -582 -578 -495 -388 -345 -711 -634 -624 -569 -440 -231 -61 -35 -42 -16 -13
0 0 0 0 0 0 0 0 0 0 0 0 0 0 0 0 0 0 0 0 0 0 0 -213 -415 -537 -583 -607 -583 -556 -484 -353 -264 -611 -608 -39 -470 -320 -139 -64 -76 -43 -13 -16
0 0 0 0 0 0 0 0 0 0 0 0 0 0 0 0 0 0 0 0 0 -153 0 0 -503 -386 -493 -565 -562 -505 -437 -358 -265 -192 -55 -47 -544 -401 -208 -171 -83 -42 -44 -59
0 0 0 0 0 0 0 0 0 0 0 0 0 0 0 0 0 0 0 0 0 0 -507 -381 -514 -622 -365 -306 -397 -417 -380 -297 -257 -198 -71 -61 -87 -103 -252 -196 -70 -78 -81 -73
0 0 0 0 0 0 0 0 0 0 0 0 0 0 0 0 0 0 0 0 0 0 -47 -377 -304 -468 -529 -391 -222 -247 -268 -71 -509 -103 -80 -65 -561 -567 -237 -129 -86 -102 -103 -104
0 0 0 0 0 0 0 0 0 0 0 0 0 0 0 0 0 0 0 0 0 0 0 -313 -335 -371 -370 -499 -352 -153 -140 -129 -494 -139 -88 -88 -500 -359 -167 -102 -123 -157 -136 -108
0 0 0 0 0 0 0 0 0 0 0 0 0 0 0 0 0 0 0 0 0 0 0 -265 -277 -260 -331 -357 -413 -218 -189 -105 -535 -534 -80 -231 -455 -304 -129 -134 -180 -158 -121 -115
0 0 0 0 0 0 0 0 0 0 0 0 0 0 0 0 0 0 0 0 0 0 0 0 -210 -218 -298 -345 -284 -249 -128 -271 -421 -68 -71 -81 -436 -252 -119 -94 -133 -64 -59 -62
0 0 0 0 0 0 0 0 0 0 0 0 0 0 0 0 0 0 0 0 0 0 0 0 0 -124 -154 -238 -248 -367 -146 -57 -117 -186 -372 -50 -73 -165 -194 -140 -99 -99 -44 -38
0 0 0 0 0 0 0 0 0 -7 0 0 0 0 0 0 0 0 0 0 0 0 0 0 0 0 -101 -94 -137 -148 -191 -69 -26 -30 -70 -94 -158 -129 -72 -118 -214 -99 -43 -18
0 0 0 0 0 0 0 0 0 0 0 -3 0 0 0 0 0 0 0 0 -1 0 0 0 0 0 0 -45 -67 -80 -79 -100 -104 -115 -22 -11 -13 -66 -66 -160 -67 -51 -38 -9
0 0 0 0 0 0 0 0 0 0 -10 0 0 0 0 0 0 0 0 0 0 0 0 0 0 0 0 0 -17 -36 -35 -68 -43 -29 -225 -47 -118 -80 -80 -30 -40 -47 -22 -5
0 0 0 0 0 0 0 0 0 0 0 0 0 0 0 0 0 0 0 0 -79 0 0 0 0 0 0 0 0 0 -25 0 0 0 -2 0 -3 -57 -36 -37 -63 -61 -36 -33
0 0 0 0 0 0 0 0 0 0 0 0 0 0 0 0 0 0 -54 -52 -44 -44 0 0 -1 0 0 -3 0 0 0 0 -1 0 0 -310 -7 -42 -51 -41 -31 -18 -6 -35
0 0 0 0 0 0 0 0 0 0 0 0 0 0 0 0 0 0 -19 -52 -47 -45 -7 0 -104 -1 0 0 0 0 0 0 0 0 -2 -1 -5 -10 -18 -29 -8 0 -10 0
Wind_Speed
nan nan nan nan nan nan nan nan nan nan nan nan nan nan nan nan nan nan nan nan nan nan nan nan nan nan nan nan nan nan nan nan 13 11 13 13 17 15 15 15 18 15 20 23
nan nan nan nan nan nan nan nan nan nan nan nan nan nan nan nan nan nan nan nan nan nan nan nan nan nan nan nan nan nan nan 26 23 25 25 25 24 19 16 17 13 17 24 26
nan nan nan nan nan nan nan nan nan nan nan nan nan nan nan nan nan nan nan nan nan nan nan nan nan nan nan nan nan nan nan 37 33 28 32 31 33 30 20 21 19 16 26 26
nan nan nan nan nan nan nan nan nan nan nan nan nan nan nan nan nan nan nan nan nan nan nan nan nan nan nan nan nan nan nan nan 38 42 45 49 35 32 25 32 26 20 24 23
nan nan nan nan nan nan nan nan nan nan nan nan nan nan nan nan nan nan nan nan nan nan nan nan nan nan nan nan nan nan nan 37 42 42 44 38 33 33 38 37 33 28 21 23
nan nan nan nan nan nan nan nan nan nan nan nan nan nan nan nan nan nan nan nan nan nan nan nan nan nan nan nan nan 27 37 35 45 43 39 31 36 45 50 44 33 31 23 23
nan nan nan nan nan nan nan nan nan nan nan nan nan nan nan nan nan nan nan nan nan nan nan nan nan nan nan nan nan 33 33 36 39 41 38 33 38 47 49 39 38 36 37 20
nan nan nan nan nan nan nan nan nan nan nan nan nan nan nan nan nan nan nan nan nan nan nan nan nan nan nan nan 37 36 31 33 37 38 46 41 45 44 32 33 40 37 27 26
nan nan nan nan nan nan nan nan nan nan nan nan nan nan nan nan nan nan nan nan nan nan nan nan nan nan nan nan 39 35 30 29 33 39 44 41 42 35 31 35 36 37 25 27
nan nan nan nan nan nan nan nan nan nan nan nan nan nan nan nan nan nan nan nan nan nan 44 nan nan nan nan 35 33 30 30 32 36 41 42 35 32 31 32 35 34 35 29 29
nan nan nan nan nan nan nan nan nan nan nan nan nan nan nan nan nan nan nan nan nan nan 29 31 33 nan 32 33 35 32 33 37 41 38 36 34 30 29 32 32 34 32 31 32
nan nan nan nan nan nan nan nan nan nan nan nan nan nan nan nan nan nan nan nan nan nan nan 31 34 32 31 35 38 38 41 42 33 37 25 22 24 27 30 31 32 32 31 33
nan nan nan nan nan nan nan nan nan nan nan nan nan nan nan nan nan nan nan nan nan nan nan 34 39 35 35 39 42 47 42 39 30 24 22 22 27 27 30 31 32 33 35 36
nan nan nan nan nan nan nan nan nan nan nan nan nan nan nan nan nan nan nan nan nan nan nan nan 35 30 35 35 34 32 35 38 34 32 31 32 29 33 37 38 34 36 39 41
nan nan nan nan nan nan nan nan nan nan nan nan nan nan nan nan nan nan nan nan nan nan nan nan nan 38 34 29 31 27 33 37 37 38 37 35 35 36 37 40 39 41 43 42
nan nan nan nan nan nan nan nan nan nan nan nan nan nan nan nan nan nan nan nan nan nan nan 59 59 nan 32 38 25 33 33 35 41 44 42 43 42 43 36 41 44 46 46 43
nan nan nan nan nan nan nan nan nan nan nan nan nan nan nan nan nan nan nan nan nan nan nan nan 53 51 45 32 30 14 31 41 44 44 45 48 53 51 48 50 53 50 50 50
nan nan nan nan nan nan nan nan nan nan nan nan nan nan nan nan nan nan nan nan nan nan nan nan 52 55 54 47 34 31 26 34 43 48 49 51 57 54 57 53 52 49 56 55
nan nan nan nan nan nan nan nan nan nan nan nan nan nan nan nan nan nan nan nan nan nan nan nan nan 53 54 56 53 49 50 45 33 46 54 56 57 61 59 52 58 58 46 49
nan nan nan nan nan nan nan nan nan nan nan nan nan nan nan nan nan nan nan nan nan nan nan nan nan nan 64 62 60 65 67 53 47 40 43 56 60 67 60 62 67 58 52 46
nan nan nan nan nan nan nan nan nan nan nan nan nan nan nan nan nan nan nan nan nan nan nan nan nan nan nan 67 63 72 72 71 63 53 52 48 63 66 63 64 62 62 62 55
nan nan nan nan nan nan nan nan nan nan nan nan nan nan nan nan nan nan nan nan nan nan nan nan nan nan nan nan 69 74 74 74 78 69 59 62 51 70 64 67 68 56 61 57
nan nan nan nan nan nan nan nan nan nan nan nan nan nan nan nan nan nan nan nan nan nan nan nan nan nan nan nan nan nan nan nan nan nan nan 81 57 58 62 63 59 54 58 56
nan nan nan nan nan nan nan nan nan nan nan nan nan nan nan nan nan nan nan nan nan nan nan nan nan nan nan nan nan nan nan nan nan nan nan nan 49 60 54 55 52 51 53 54
nan nan nan nan nan nan nan nan nan nan nan nan nan nan nan nan nan nan nan nan nan nan nan nan nan nan nan nan nan nan nan nan nan nan nan nan 48 48 47 49 48 47 49 nan
nan nan nan nan nan nan nan nan nan nan nan nan nan nan nan nan nan nan nan nan nan nan nan nan nan nan nan nan nan nan nan nan nan nan nan 34 32 35 43 49 54 49 nan nan
Wind_Direction
nan nan nan nan nan nan nan nan nan nan nan nan nan nan nan nan nan nan nan nan nan nan nan nan nan nan nan nan nan nan nan nan 342 326 314 299 294 280 290 305 300 309 318 320
nan nan nan nan nan nan nan nan nan nan nan nan nan nan nan nan nan nan nan nan nan nan nan nan nan nan nan nan nan nan nan 343 346 335 335 321 308 281 285 294 299 299 317 316
nan nan nan nan nan nan nan nan nan nan nan nan nan nan nan nan nan nan nan nan nan nan nan nan nan nan nan nan nan nan nan 349 348 339 311 298 294 279 280 287 284 289 304 309
nan nan nan nan nan nan nan nan nan nan nan nan nan nan nan nan nan nan nan nan nan nan nan nan nan nan nan nan nan nan nan nan 335 340 342 345 290 306 309 299 293 294 298 306
nan nan nan nan nan nan nan nan nan nan nan nan nan nan nan nan nan nan nan nan nan nan nan nan nan nan nan nan nan nan nan 332 335 340 351 357 356 341 327 307 297 292 288 297
nan nan nan nan nan nan nan nan nan nan nan nan nan nan nan nan nan nan nan nan nan nan nan nan nan nan nan nan nan 321 328 331 334 339 346 346 335 327 318 305 298 285 273 284
nan nan nan nan nan nan nan nan nan nan nan nan nan nan nan nan nan nan nan nan nan nan nan nan nan nan nan nan nan 320 322 330 330 329 332 315 312 319 312 300 296 291 281 287
nan nan nan nan nan nan nan nan nan nan nan nan nan nan nan nan nan nan nan nan nan nan nan nan nan nan nan nan 320 320 319 324 325 320 318 300 306 308 305 287 289 289 301 294
nan nan nan nan nan nan nan nan nan nan nan nan nan nan nan nan nan nan nan nan nan nan nan nan nan nan nan nan 302 320 315 323 314 309 305 300 303 300 299 291 290 294 299 291
nan nan nan nan nan nan nan nan nan nan nan nan nan nan nan nan nan nan nan nan nan nan 253 nan nan nan nan 292 310 308 308 317 308 308 307 295 294 294 293 293 293 294 299 293
nan nan nan nan nan nan nan nan nan nan nan nan nan nan nan nan nan nan nan nan nan nan 257 263 258 nan 291 294 299 298 302 307 308 309 300 293 290 296 292 292 289 293 289 295
nan nan nan nan nan nan nan nan nan nan nan nan nan nan nan nan nan nan nan nan nan nan nan 270 267 265 270 288 290 295 299 306 312 307 291 310 313 307 301 294 291 293 297 296
nan nan nan nan nan nan nan nan nan nan nan nan nan nan nan nan nan nan nan nan nan nan nan 243 269 277 290 286 295 303 307 311 309 310 296 316 318 305 294 291 291 295 295 293
nan nan nan nan nan nan nan nan nan nan nan nan nan nan nan nan nan nan nan nan nan nan nan nan 255 266 299 299 311 293 290 302 310 304 298 298 326 308 294 293 297 298 298 300
nan nan nan nan nan nan nan nan nan nan nan nan nan nan nan nan nan nan nan nan nan nan nan nan nan 257 269 297 295 287 286 303 304 310 305 315 303 306 299 304 310 307 309 310
nan nan nan nan nan nan nan nan nan nan nan nan nan nan nan nan nan nan nan nan nan nan nan 239 239 nan 263 279 302 303 299 296 303 309 311 302 299 306 305 306 305 310 313 310
nan nan nan nan nan nan nan nan nan nan nan nan nan nan nan nan nan nan nan nan nan nan nan nan 235 226 223 249 266 269 297 292 298 301 295 295 297 301 309 306 309 309 309 310
nan nan nan nan nan nan nan nan nan nan nan nan nan nan nan nan nan nan nan nan nan nan nan nan 237 236 231 223 237 259 259 282 293 295 299 295 296 299 302 298 290 301 304 307
nan nan nan nan nan nan nan nan nan nan nan nan nan nan nan nan nan nan nan nan nan nan nan nan nan 237 241 241 236 247 268 277 278 296 297 297 291 292 290 273 304 291 289 300
nan nan nan nan nan nan nan nan nan nan nan nan nan nan nan nan nan nan nan nan nan nan nan nan nan nan 249 250 246 246 244 262 274 271 289 290 290 289 288 290 287 295 305 303
nan nan nan nan nan nan nan nan nan nan nan nan nan nan nan nan nan nan nan nan nan nan nan nan nan nan nan 251 250 253 254 253 254 264 263 256 275 280 280 289 291 293 295 297
nan nan nan nan nan nan nan nan nan nan nan nan nan nan nan nan nan nan nan nan nan nan nan nan nan nan nan nan 248 255 257 258 259 265 258 270 242 262 270 280 281 288 288 293
nan nan nan nan nan nan nan nan nan nan nan nan nan nan nan nan nan nan nan nan nan nan nan nan nan nan nan nan nan nan nan nan nan nan nan 253 251 252 262 274 280 284 289 295
nan nan nan nan nan nan nan nan nan nan nan nan nan nan nan nan nan nan nan nan nan nan nan nan nan nan nan nan nan nan nan nan nan nan nan nan 233 245 250 263 271 282 291 297
nan nan nan nan nan nan nan nan nan nan nan nan nan nan nan nan nan nan nan nan nan nan nan nan nan nan nan nan nan nan nan nan nan nan nan nan 215 227 253 263 276 287 297 nan
nan nan nan nan nan nan nan nan nan nan nan nan nan nan nan nan nan nan nan nan nan nan nan nan nan nan nan nan nan nan nan nan nan nan nan 216 226 239 254 262 267 265 nan nan